Year,Month,Day,Hour,Minute,Value (Times are PST for temperature in C)
2020,04,16,00,00,13.30
2020,04,16,00,01,13.30
2020,04,16,00,02,13.30
2020,04,16,00,03,13.30
2020,04,16,00,04,13.30
2020,04,16,00,05,13.20
2020,04,16,00,06,13.20
2020,04,16,00,07,13.20
2020,04,16,00,08,13.10
2020,04,16,00,09,13.10
2020,04,16,00,10,13.10
2020,04,16,00,11,13.00
2020,04,16,00,12,13.00
2020,04,16,00,13,13.00
2020,04,16,00,14,13.00
2020,04,16,00,15,13.00
2020,04,16,00,16,13.00
2020,04,16,00,17,13.00
2020,04,16,00,18,12.90
2020,04,16,00,19,12.90
2020,04,16,00,20,12.90
2020,04,16,00,21,12.90
2020,04,16,00,22,12.90
2020,04,16,00,23,12.90
2020,04,16,00,24,12.90
2020,04,16,00,25,12.90
2020,04,16,00,26,12.90
2020,04,16,00,27,12.90
2020,04,16,00,28,12.90
2020,04,16,00,29,12.90
2020,04,16,00,30,12.90
2020,04,16,00,31,12.90
2020,04,16,00,32,12.90
2020,04,16,00,33,12.90
2020,04,16,00,34,12.90
2020,04,16,00,35,12.90
2020,04,16,00,36,12.90
2020,04,16,00,37,12.90
2020,04,16,00,38,12.90
2020,04,16,00,39,12.90
2020,04,16,00,40,12.90
2020,04,16,00,41,12.90
2020,04,16,00,42,12.80
2020,04,16,00,43,12.80
2020,04,16,00,44,12.90
2020,04,16,00,45,12.90
2020,04,16,00,46,12.90
2020,04,16,00,47,12.90
2020,04,16,00,48,12.90
2020,04,16,00,49,12.90
2020,04,16,00,50,12.90
2020,04,16,00,51,12.90
2020,04,16,00,52,12.90
2020,04,16,00,53,12.90
2020,04,16,00,54,12.90
2020,04,16,00,55,12.80
2020,04,16,00,56,12.80
2020,04,16,00,57,12.80
2020,04,16,00,58,12.80
2020,04,16,00,59,12.80
2020,04,16,01,00,12.80
2020,04,16,01,01,12.70
2020,04,16,01,02,12.60
2020,04,16,01,03,12.60
2020,04,16,01,04,12.50
2020,04,16,01,05,12.50
2020,04,16,01,06,12.40
2020,04,16,01,07,12.50
2020,04,16,01,08,12.50
2020,04,16,01,09,12.60
2020,04,16,01,10,12.60
2020,04,16,01,11,12.60
2020,04,16,01,12,12.60
2020,04,16,01,13,12.60
2020,04,16,01,14,12.60
2020,04,16,01,15,12.60
2020,04,16,01,16,12.60
2020,04,16,01,17,12.60
2020,04,16,01,18,12.60
2020,04,16,01,19,12.60
2020,04,16,01,20,12.70
2020,04,16,01,21,12.70
2020,04,16,01,22,12.70
2020,04,16,01,23,12.70
2020,04,16,01,24,12.80
2020,04,16,01,25,12.80
2020,04,16,01,26,12.80
2020,04,16,01,27,12.80
2020,04,16,01,28,12.80
2020,04,16,01,29,12.80
2020,04,16,01,30,12.80
2020,04,16,01,31,12.80
2020,04,16,01,32,12.80
2020,04,16,01,33,12.90
2020,04,16,01,34,12.90
2020,04,16,01,35,12.90
2020,04,16,01,36,13.00
2020,04,16,01,37,13.00
2020,04,16,01,38,13.00
2020,04,16,01,39,13.00
2020,04,16,01,40,13.00
2020,04,16,01,41,12.90
2020,04,16,01,42,12.90
2020,04,16,01,43,12.90
2020,04,16,01,44,12.90
2020,04,16,01,45,12.80
2020,04,16,01,46,12.90
2020,04,16,01,47,12.90
2020,04,16,01,48,12.90
2020,04,16,01,49,12.90
2020,04,16,01,50,12.90
2020,04,16,01,51,12.90
2020,04,16,01,52,12.90
2020,04,16,01,53,12.90
2020,04,16,01,54,12.90
2020,04,16,01,55,13.00
2020,04,16,01,56,12.90
2020,04,16,01,57,12.90
2020,04,16,01,58,13.00
2020,04,16,01,59,13.00
2020,04,16,02,00,13.00
2020,04,16,02,01,13.10
2020,04,16,02,02,13.10
2020,04,16,02,03,13.10
2020,04,16,02,04,13.10
2020,04,16,02,05,13.10
2020,04,16,02,06,13.10
2020,04,16,02,07,13.10
2020,04,16,02,08,13.10
2020,04,16,02,09,13.10
2020,04,16,02,10,13.00
2020,04,16,02,11,13.00
2020,04,16,02,12,13.00
2020,04,16,02,13,13.10
2020,04,16,02,14,13.10
2020,04,16,02,15,13.10
2020,04,16,02,16,13.10
2020,04,16,02,17,13.10
2020,04,16,02,18,13.10
2020,04,16,02,19,13.10
2020,04,16,02,20,13.00
2020,04,16,02,21,13.00
2020,04,16,02,22,13.10
2020,04,16,02,23,13.10
2020,04,16,02,24,13.10
2020,04,16,02,25,13.10
2020,04,16,02,26,13.10
2020,04,16,02,27,13.10
2020,04,16,02,28,13.10
2020,04,16,02,29,13.10
2020,04,16,02,30,13.10
2020,04,16,02,31,13.10
2020,04,16,02,32,13.10
2020,04,16,02,33,13.00
2020,04,16,02,34,13.00
2020,04,16,02,35,13.00
2020,04,16,02,36,13.00
2020,04,16,02,37,13.00
2020,04,16,02,38,13.00
2020,04,16,02,39,13.00
2020,04,16,02,40,13.00
2020,04,16,02,41,13.00
2020,04,16,02,42,13.00
2020,04,16,02,43,13.00
2020,04,16,02,44,12.90
2020,04,16,02,45,12.90
2020,04,16,02,46,12.90
2020,04,16,02,47,12.90
2020,04,16,02,48,12.80
2020,04,16,02,49,12.80
2020,04,16,02,50,12.80
2020,04,16,02,51,12.80
2020,04,16,02,52,12.80
2020,04,16,02,53,12.80
2020,04,16,02,54,12.70
2020,04,16,02,55,12.70
2020,04,16,02,56,12.60
2020,04,16,02,57,12.50
2020,04,16,02,58,12.40
2020,04,16,02,59,12.30
2020,04,16,03,00,12.10
2020,04,16,03,01,12.10
2020,04,16,03,02,12.00
2020,04,16,03,03,11.90
2020,04,16,03,04,11.80
2020,04,16,03,05,11.70
2020,04,16,03,06,11.60
2020,04,16,03,07,11.60
2020,04,16,03,08,11.60
2020,04,16,03,09,11.60
2020,04,16,03,10,11.60
2020,04,16,03,11,11.70
2020,04,16,03,12,11.70
2020,04,16,03,13,11.70
2020,04,16,03,14,11.70
2020,04,16,03,15,11.80
2020,04,16,03,16,11.80
2020,04,16,03,17,11.80
2020,04,16,03,18,11.80
2020,04,16,03,19,11.80
2020,04,16,03,20,11.80
2020,04,16,03,21,11.80
2020,04,16,03,22,11.80
2020,04,16,03,23,11.80
2020,04,16,03,24,11.70
2020,04,16,03,25,11.70
2020,04,16,03,26,11.70
2020,04,16,03,27,11.70
2020,04,16,03,28,11.70
2020,04,16,03,29,11.70
2020,04,16,03,30,11.80
2020,04,16,03,31,11.80
2020,04,16,03,32,11.80
2020,04,16,03,33,11.80
2020,04,16,03,34,11.90
2020,04,16,03,35,11.90
2020,04,16,03,36,11.90
2020,04,16,03,37,11.90
2020,04,16,03,38,12.00
2020,04,16,03,39,12.00
2020,04,16,03,40,12.00
2020,04,16,03,41,12.00
2020,04,16,03,42,12.00
2020,04,16,03,43,12.00
2020,04,16,03,44,12.00
2020,04,16,03,45,12.00
2020,04,16,03,46,12.00
2020,04,16,03,47,12.00
2020,04,16,03,48,11.90
2020,04,16,03,49,11.90
2020,04,16,03,50,11.90
2020,04,16,03,51,11.90
2020,04,16,03,52,11.80
2020,04,16,03,53,11.80
2020,04,16,03,54,11.70
2020,04,16,03,55,11.70
2020,04,16,03,56,11.60
2020,04,16,03,57,11.60
2020,04,16,03,58,11.60
2020,04,16,03,59,11.60
2020,04,16,04,00,11.60
2020,04,16,04,01,11.60
2020,04,16,04,02,11.60
2020,04,16,04,03,11.60
2020,04,16,04,04,11.60
2020,04,16,04,05,11.60
2020,04,16,04,06,11.60
2020,04,16,04,07,11.60
2020,04,16,04,08,11.60
2020,04,16,04,09,11.60
2020,04,16,04,10,11.60
2020,04,16,04,11,11.60
2020,04,16,04,12,11.70
2020,04,16,04,13,11.70
2020,04,16,04,14,11.70
2020,04,16,04,15,11.70
2020,04,16,04,16,11.70
2020,04,16,04,17,11.70
2020,04,16,04,18,11.70
2020,04,16,04,19,11.70
2020,04,16,04,20,11.70
2020,04,16,04,21,11.70
2020,04,16,04,22,11.70
2020,04,16,04,23,11.70
2020,04,16,04,24,11.70
2020,04,16,04,25,11.70
2020,04,16,04,26,11.70
2020,04,16,04,27,11.70
2020,04,16,04,28,11.70
2020,04,16,04,29,11.70
2020,04,16,04,30,11.70
2020,04,16,04,31,11.70
2020,04,16,04,32,11.70
2020,04,16,04,33,11.70
2020,04,16,04,34,11.70
2020,04,16,04,35,11.70
2020,04,16,04,36,11.70
2020,04,16,04,37,11.70
2020,04,16,04,38,11.60
2020,04,16,04,39,11.60
2020,04,16,04,40,11.60
2020,04,16,04,41,11.60
2020,04,16,04,42,11.50
2020,04,16,04,43,11.50
2020,04,16,04,44,11.40
2020,04,16,04,45,11.40
2020,04,16,04,46,11.40
2020,04,16,04,47,11.40
2020,04,16,04,48,11.40
2020,04,16,04,49,11.40
2020,04,16,04,50,11.40
2020,04,16,04,51,11.40
2020,04,16,04,52,11.40
2020,04,16,04,53,11.40
2020,04,16,04,54,11.40
2020,04,16,04,55,11.50
2020,04,16,04,56,11.50
2020,04,16,04,57,11.50
2020,04,16,04,58,11.60
2020,04,16,04,59,11.60
2020,04,16,05,00,11.60
2020,04,16,05,01,11.60
2020,04,16,05,02,11.60
2020,04,16,05,03,11.60
2020,04,16,05,04,11.60
2020,04,16,05,05,11.60
2020,04,16,05,06,11.60
2020,04,16,05,07,11.60
2020,04,16,05,08,11.60
2020,04,16,05,09,11.50
2020,04,16,05,10,11.50
2020,04,16,05,11,11.50
2020,04,16,05,12,11.40
2020,04,16,05,13,11.40
2020,04,16,05,14,11.40
2020,04,16,05,15,11.30
2020,04,16,05,16,11.30
2020,04,16,05,17,11.30
2020,04,16,05,18,11.30
2020,04,16,05,19,11.30
2020,04,16,05,20,11.30
2020,04,16,05,21,11.30
2020,04,16,05,22,11.30
2020,04,16,05,23,11.30
2020,04,16,05,24,11.30
2020,04,16,05,25,11.30
2020,04,16,05,26,11.30
2020,04,16,05,27,11.20
2020,04,16,05,28,11.20
2020,04,16,05,29,11.20
2020,04,16,05,30,11.20
2020,04,16,05,31,11.20
2020,04,16,05,32,11.20
2020,04,16,05,33,11.20
2020,04,16,05,34,11.20
2020,04,16,05,35,11.20
2020,04,16,05,36,11.20
2020,04,16,05,37,11.20
2020,04,16,05,38,11.20
2020,04,16,05,39,11.20
2020,04,16,05,40,11.20
2020,04,16,05,41,11.20
2020,04,16,05,42,11.20
2020,04,16,05,43,11.20
2020,04,16,05,44,11.20
2020,04,16,05,45,11.20
2020,04,16,05,46,11.20
2020,04,16,05,47,11.20
2020,04,16,05,48,11.20
2020,04,16,05,49,11.20
2020,04,16,05,50,11.20
2020,04,16,05,51,11.20
2020,04,16,05,52,11.20
2020,04,16,05,53,11.20
2020,04,16,05,54,11.20
2020,04,16,05,55,11.20
2020,04,16,05,56,11.20
2020,04,16,05,57,11.20
2020,04,16,05,58,11.20
2020,04,16,05,59,11.20
2020,04,16,06,00,11.20
2020,04,16,06,01,11.20
2020,04,16,06,02,11.20
2020,04,16,06,03,11.20
2020,04,16,06,04,11.20
2020,04,16,06,05,11.10
2020,04,16,06,06,11.10
2020,04,16,06,07,11.10
2020,04,16,06,08,11.10
2020,04,16,06,09,11.10
2020,04,16,06,10,11.10
2020,04,16,06,11,11.10
2020,04,16,06,12,11.00
2020,04,16,06,13,11.00
2020,04,16,06,14,10.90
2020,04,16,06,15,10.90
2020,04,16,06,16,10.90
2020,04,16,06,17,10.90
2020,04,16,06,18,10.80
2020,04,16,06,19,10.80
2020,04,16,06,20,10.80
2020,04,16,06,21,10.80
2020,04,16,06,22,10.70
2020,04,16,06,23,10.70
2020,04,16,06,24,10.70
2020,04,16,06,25,10.70
2020,04,16,06,26,10.60
2020,04,16,06,27,10.60
2020,04,16,06,28,10.60
2020,04,16,06,29,10.60
2020,04,16,06,30,10.60
2020,04,16,06,31,10.60
2020,04,16,06,32,10.60
2020,04,16,06,33,10.60
2020,04,16,06,34,10.60
2020,04,16,06,35,10.60
2020,04,16,06,36,10.60
2020,04,16,06,37,10.60
2020,04,16,06,38,10.60
2020,04,16,06,39,10.60
2020,04,16,06,40,10.60
2020,04,16,06,41,10.60
2020,04,16,06,42,10.60
2020,04,16,06,43,10.60
2020,04,16,06,44,10.60
2020,04,16,06,45,10.60
2020,04,16,06,46,10.60
2020,04,16,06,47,10.60
2020,04,16,06,48,10.60
2020,04,16,06,49,10.60
2020,04,16,06,50,10.60
2020,04,16,06,51,10.60
2020,04,16,06,52,10.70
2020,04,16,06,53,10.70
2020,04,16,06,54,10.70
2020,04,16,06,55,10.70
2020,04,16,06,56,10.70
2020,04,16,06,57,10.80
2020,04,16,06,58,10.80
2020,04,16,06,59,10.80
2020,04,16,07,00,10.80
2020,04,16,07,01,10.80
2020,04,16,07,02,10.80
2020,04,16,07,03,10.80
2020,04,16,07,04,10.80
2020,04,16,07,05,10.80
2020,04,16,07,06,10.80
2020,04,16,07,07,10.90
2020,04,16,07,08,10.90
2020,04,16,07,09,10.90
2020,04,16,07,10,10.90
2020,04,16,07,11,10.90
2020,04,16,07,12,10.90
2020,04,16,07,13,10.90
2020,04,16,07,14,10.90
2020,04,16,07,15,10.90
2020,04,16,07,16,10.90
2020,04,16,07,17,11.00
2020,04,16,07,18,11.00
2020,04,16,07,19,11.00
2020,04,16,07,20,11.10
2020,04,16,07,21,11.10
2020,04,16,07,22,11.10
2020,04,16,07,23,11.10
2020,04,16,07,24,11.10
2020,04,16,07,25,11.20
2020,04,16,07,26,11.20
2020,04,16,07,27,11.20
2020,04,16,07,28,11.20
2020,04,16,07,29,11.20
2020,04,16,07,30,11.20
2020,04,16,07,31,11.20
2020,04,16,07,32,11.20
2020,04,16,07,33,11.20
2020,04,16,07,34,11.20
2020,04,16,07,35,11.20
2020,04,16,07,36,11.30
2020,04,16,07,37,11.30
2020,04,16,07,38,11.30
2020,04,16,07,39,11.30
2020,04,16,07,40,11.30
2020,04,16,07,41,11.30
2020,04,16,07,42,11.30
2020,04,16,07,43,11.30
2020,04,16,07,44,11.40
2020,04,16,07,45,11.40
2020,04,16,07,46,11.40
2020,04,16,07,47,11.40
2020,04,16,07,48,11.40
2020,04,16,07,49,11.50
2020,04,16,07,50,11.50
2020,04,16,07,51,11.50
2020,04,16,07,52,11.50
2020,04,16,07,53,11.50
2020,04,16,07,54,11.50
2020,04,16,07,55,11.50
2020,04,16,07,56,11.50
2020,04,16,07,57,11.40
2020,04,16,07,58,11.50
2020,04,16,07,59,11.50
2020,04,16,08,00,11.50
2020,04,16,08,01,11.50
2020,04,16,08,02,11.50
2020,04,16,08,03,11.50
2020,04,16,08,04,11.50
2020,04,16,08,05,11.60
2020,04,16,08,06,11.60
2020,04,16,08,07,11.60
2020,04,16,08,08,11.50
2020,04,16,08,09,11.60
2020,04,16,08,10,11.60
2020,04,16,08,11,11.60
2020,04,16,08,12,11.60
2020,04,16,08,13,11.60
2020,04,16,08,14,11.70
2020,04,16,08,15,11.70
2020,04,16,08,16,11.70
2020,04,16,08,17,11.70
2020,04,16,08,18,11.70
2020,04,16,08,19,11.70
2020,04,16,08,20,11.80
2020,04,16,08,21,11.80
2020,04,16,08,22,11.80
2020,04,16,08,23,11.80
2020,04,16,08,24,11.80
2020,04,16,08,25,11.90
2020,04,16,08,26,11.90
2020,04,16,08,27,11.90
2020,04,16,08,28,11.90
2020,04,16,08,29,11.90
2020,04,16,08,30,11.90
2020,04,16,08,31,11.90
2020,04,16,08,32,11.90
2020,04,16,08,33,11.80
2020,04,16,08,34,11.80
2020,04,16,08,35,11.80
2020,04,16,08,36,11.80
2020,04,16,08,37,11.80
2020,04,16,08,38,11.70
2020,04,16,08,39,11.70
2020,04,16,08,40,11.70
2020,04,16,08,41,11.70
2020,04,16,08,42,11.70
2020,04,16,08,43,11.80
2020,04,16,08,44,11.80
2020,04,16,08,45,11.80
2020,04,16,08,46,11.80
2020,04,16,08,47,11.80
2020,04,16,08,48,11.80
2020,04,16,08,49,11.80
2020,04,16,08,50,11.80
2020,04,16,08,51,11.80
2020,04,16,08,52,11.80
2020,04,16,08,53,11.80
2020,04,16,08,54,11.80
2020,04,16,08,55,11.70
2020,04,16,08,56,11.70
2020,04,16,08,57,11.70
2020,04,16,08,58,11.80
2020,04,16,08,59,11.80
2020,04,16,09,00,11.80
2020,04,16,09,01,11.80
2020,04,16,09,02,11.80
2020,04,16,09,03,11.80
2020,04,16,09,04,11.90
2020,04,16,09,05,11.90
2020,04,16,09,06,12.00
2020,04,16,09,07,11.90
2020,04,16,09,08,11.90
2020,04,16,09,09,12.00
2020,04,16,09,10,12.00
2020,04,16,09,11,12.10
2020,04,16,09,12,12.10
2020,04,16,09,13,12.10
2020,04,16,09,14,12.10
2020,04,16,09,15,12.10
2020,04,16,09,16,12.10
2020,04,16,09,17,12.10
2020,04,16,09,18,12.10
2020,04,16,09,19,12.10
2020,04,16,09,20,12.10
2020,04,16,09,21,12.10
2020,04,16,09,22,12.10
2020,04,16,09,23,12.10
2020,04,16,09,24,12.10
2020,04,16,09,25,12.10
2020,04,16,09,26,12.10
2020,04,16,09,27,12.10
2020,04,16,09,28,12.10
2020,04,16,09,29,12.10
2020,04,16,09,30,12.10
2020,04,16,09,31,12.10
2020,04,16,09,32,12.10
2020,04,16,09,33,12.10
2020,04,16,09,34,12.00
2020,04,16,09,35,12.00
2020,04,16,09,36,12.00
2020,04,16,09,37,11.90
2020,04,16,09,38,11.90
2020,04,16,09,39,11.90
2020,04,16,09,40,11.90
2020,04,16,09,41,11.90
2020,04,16,09,42,11.90
2020,04,16,09,43,11.90
2020,04,16,09,44,11.90
2020,04,16,09,45,11.90
2020,04,16,09,46,11.90
2020,04,16,09,47,11.90
2020,04,16,09,48,11.90
2020,04,16,09,49,11.90
2020,04,16,09,50,11.80
2020,04,16,09,51,11.80
2020,04,16,09,52,11.80
2020,04,16,09,53,11.80
2020,04,16,09,54,11.80
2020,04,16,09,55,11.80
2020,04,16,09,56,11.90
2020,04,16,09,57,11.90
2020,04,16,09,58,11.90
2020,04,16,09,59,11.90
2020,04,16,10,00,11.90
2020,04,16,10,01,12.00
2020,04,16,10,02,12.00
2020,04,16,10,03,12.00
2020,04,16,10,04,12.10
2020,04,16,10,05,12.10
2020,04,16,10,06,12.20
2020,04,16,10,07,12.20
2020,04,16,10,08,12.30
2020,04,16,10,09,12.30
2020,04,16,10,10,12.30
2020,04,16,10,11,12.30
2020,04,16,10,12,12.30
2020,04,16,10,13,12.30
2020,04,16,10,14,12.30
2020,04,16,10,15,12.30
2020,04,16,10,16,12.30
2020,04,16,10,17,12.30
2020,04,16,10,18,12.30
2020,04,16,10,19,12.30
2020,04,16,10,20,12.30
2020,04,16,10,21,12.40
2020,04,16,10,22,12.40
2020,04,16,10,23,12.50
2020,04,16,10,24,12.50
2020,04,16,10,25,12.60
2020,04,16,10,26,12.60
2020,04,16,10,27,12.70
2020,04,16,10,28,12.70
2020,04,16,10,29,12.80
2020,04,16,10,30,12.80
2020,04,16,10,31,12.80
2020,04,16,10,32,12.80
2020,04,16,10,33,12.80
2020,04,16,10,34,12.90
2020,04,16,10,35,12.90
2020,04,16,10,36,12.80
2020,04,16,10,37,12.80
2020,04,16,10,38,12.80
2020,04,16,10,39,12.70
2020,04,16,10,40,12.70
2020,04,16,10,41,12.70
2020,04,16,10,42,12.70
2020,04,16,10,43,12.70
2020,04,16,10,44,12.70
2020,04,16,10,45,12.80
2020,04,16,10,46,12.90
2020,04,16,10,47,12.90
2020,04,16,10,48,12.90
2020,04,16,10,49,12.90
2020,04,16,10,50,12.90
2020,04,16,10,51,12.80
2020,04,16,10,52,12.80
2020,04,16,10,53,12.80
2020,04,16,10,54,12.80
2020,04,16,10,55,12.80
2020,04,16,10,56,12.80
2020,04,16,10,57,12.80
2020,04,16,10,58,12.80
2020,04,16,10,59,12.80
2020,04,16,11,00,12.80
2020,04,16,11,01,12.90
2020,04,16,11,02,12.90
2020,04,16,11,03,13.00
2020,04,16,11,04,13.10
2020,04,16,11,05,13.20
2020,04,16,11,06,13.30
2020,04,16,11,07,13.40
2020,04,16,11,08,13.40
2020,04,16,11,09,13.40
2020,04,16,11,10,13.40
2020,04,16,11,11,13.40
2020,04,16,11,12,13.40
2020,04,16,11,13,13.30
2020,04,16,11,14,13.30
2020,04,16,11,15,13.30
2020,04,16,11,16,13.30
2020,04,16,11,17,13.40
2020,04,16,11,18,13.40
2020,04,16,11,19,13.40
2020,04,16,11,20,13.40
2020,04,16,11,21,13.40
2020,04,16,11,22,13.30
2020,04,16,11,23,13.30
2020,04,16,11,24,13.20
2020,04,16,11,25,13.10
2020,04,16,11,26,13.10
2020,04,16,11,27,12.90
2020,04,16,11,28,12.90
2020,04,16,11,29,12.90
2020,04,16,11,30,12.90
2020,04,16,11,31,12.90
2020,04,16,11,32,12.90
2020,04,16,11,33,12.90
2020,04,16,11,34,12.80
2020,04,16,11,35,12.80
2020,04,16,11,36,12.80
2020,04,16,11,37,12.70
2020,04,16,11,38,12.70
2020,04,16,11,39,12.70
2020,04,16,11,40,12.70
2020,04,16,11,41,12.70
2020,04,16,11,42,12.80
2020,04,16,11,43,12.80
2020,04,16,11,44,12.70
2020,04,16,11,45,12.70
2020,04,16,11,46,12.70
2020,04,16,11,47,12.70
2020,04,16,11,48,12.80
2020,04,16,11,49,12.80
2020,04,16,11,50,13.00
2020,04,16,11,51,13.10
2020,04,16,11,52,13.20
2020,04,16,11,53,13.30
2020,04,16,11,54,13.30
2020,04,16,11,55,13.30
2020,04,16,11,56,13.20
2020,04,16,11,57,13.20
2020,04,16,11,58,13.20
2020,04,16,11,59,13.30
2020,04,16,12,00,13.30
2020,04,16,12,01,13.30
2020,04,16,12,02,13.30
2020,04,16,12,03,13.30
2020,04,16,12,04,13.30
2020,04,16,12,05,13.30
2020,04,16,12,06,13.30
2020,04,16,12,07,13.30
2020,04,16,12,08,13.30
2020,04,16,12,09,13.30
2020,04,16,12,10,13.30
2020,04,16,12,11,13.30
2020,04,16,12,12,13.30
